GFSGL_con_lsi_231.txt.gz
Lid_Strength_Index
7 7 8 9 8 8 9 9 9 9 9 9 9 9 8 9 8 8 9 9 9 10 10 10 11 10 10 10 10 10 9 8 8 8 9 9 10 9 9 8 8 9 8
7 7 9 9 9 9 10 10 10 10 10 10 10 10 11 10 10 10 10 10 10 11 11 11 11 11 11 10 10 11 11 10 9 10 9 9 9 9 8 8 8 8 8
8 8 9 10 10 10 11 11 11 11 11 11 11 11 11 10 10 10 10 10 11 11 11 11 11 11 11 11 11 11 10 10 9 9 10 9 8 8 9 8 8 9 9
10 11 11 11 12 11 11 11 11 11 11 11 11 11 11 11 11 11 11 11 11 11 11 11 11 10 10 9 9 9 9 9 9 9 10 9 9 8 9 10 10 9 10
11 11 11 11 11 11 11 11 11 11 11 11 11 11 10 10 10 11 11 11 11 11 11 11 10 11 10 9 9 9 9 9 9 9 10 9 10 11 11 10 10 10 11
11 11 11 11 11 11 11 11 11 11 11 11 11 11 10 10 9 9 10 11 11 11 11 10 10 10 9 8 8 8 8 9 9 10 10 11 12 11 11 11 11 12 13
11 11 11 11 11 11 11 11 11 11 11 11 11 10 10 9 9 9 10 10 10 10 11 11 10 10 10 9 9 9 9 8 8 9 11 11 12 12 12 12 12 12 12
12 12 12 11 11 11 11 11 11 11 11 11 11 11 10 9 9 9 10 11 11 11 11 11 11 10 9 10 9 10 9 9 10 10 11 11 11 11 12 12 12 12 11
13 12 12 12 11 11 11 11 11 11 11 11 11 11 11 10 8 9 10 10 11 11 10 10 10 11 10 9 10 10 10 10 9 10 11 11 11 11 11 11 13 13 14
13 12 12 12 11 12 12 11 11 11 11 11 11 11 12 11 9 9 10 11 11 11 10 10 11 11 11 10 11 11 12 11 11 12 13 12 12 12 11 12 12 14 14
13 13 13 12 12 12 12 12 12 12 11 12 12 12 12 11 10 9 9 10 11 11 11 11 11 11 11 11 11 11 11 11 12 12 13 13 13 13 13 12 13 13 14
14 14 14 14 13 13 13 13 14 13 13 14 13 13 12 11 11 10 10 10 10 11 11 11 11 11 11 11 12 11 11 13 13 14 14 15 15 15 15 15 14 13 13
16 16 16 16 15 15 14 14 14 14 14 14 14 13 12 12 11 10 10 10 10 10 10 10 11 12 13 13 12 12 14 14 14 15 16 16 16 17 16 16 16 17 16
19 18 17 17 17 16 15 15 15 15 15 15 14 14 12 12 12 11 11 11 11 10 10 12 12 14 14 16 16 16 15 14 15 16 17 18 17 17 18 18 18 19 17
19 18 18 18 19 18 17 16 15 13 13 15 15 15 14 13 11 10 11 11 11 10 11 12 13 15 17 18 18 18 17 17 17 19 18 18 18 18 19 21 21 20 20
19 19 19 19 19 19 19 18 14 12 10 9 11 13 13 11 10 10 10 11 11 11 12 13 14 16 18 18 17 18 19 20 20 19 20 20 20 20 20 20 21 22 20
23 21 21 21 21 21 21 21 20 17 13 11 9 9 10 10 11 11 11 12 12 13 14 14 16 16 17 18 19 19 19 21 23 21 21 22 22 22 21 22 21 21 20
29 26 25 24 25 24 23 22 23 22 21 17 14 11 10 10 11 12 12 15 19 18 18 17 16 17 18 18 19 19 20 21 21 22 22 25 25 22 21 22 23 23 22
26 26 27 26 26 26 25 24 24 22 22 23 21 14 13 11 13 14 15 21 20 19 18 19 19 18 19 20 21 22 22 22 24 23 25 26 26 24 24 25 23 28 26
31 27 28 29 28 27 27 26 26 26 24 24 22 20 17 16 20 22 22 21 19 18 19 20 21 21 21 22 23 23 23 23 23 24 26 26 27 26 24 25 25 22 24
32 32 30 31 31 31 30 30 29 28 27 24 22 17 14 21 24 24 24 23 21 20 21 21 22 23 23 24 24 23 23 24 26 27 26 27 28 24 28 27 26 28 27
33 33 34 33 31 30 31 30 29 28 26 23 23 25 18 25 25 25 24 24 24 24 24 23 23 24 25 23 24 23 23 24 26 28 27 29 28 27 27 26 26 26 26
33 33 33 33 33 31 31 31 29 28 27 26 27 27 27 28 27 26 26 26 26 25 26 25 25 27 29 29 28 25 23 24 25 28 27 28 28 26 27 25 27 25 26
33 32 31 32 32 31 30 29 28 29 30 30 30 29 28 29 27 26 25 25 25 26 27 27 28 28 30 30 30 31 31 32 31 30 29 28 28 29 28 29 29 30 29
34 32 32 32 31 31 31 31 31 33 32 31 31 29 28 28 27 27 25 25 25 25 27 30 30 30 31 32 31 31 30 31 33 34 31 29 29 30 31 30 30 29 30
33 33 33 34 32 32 31 30 30 31 32 32 32 32 31 28 27 26 27 27 27 27 29 30 31 32 31 30 31 28 25 27 30 32 30 27 27 29 29 30 32 30 31

GFSGL_con_lsi_237.txt.gz
Lid_Strength_Index
8 8 8 8 9 9 9 9 9 9 9 9 8 9 9 9 9 9 9 9 9 9 9 10 10 9 9 9 8 9 9 8 8 10 9 9 10 10 10 10 11 10 11
10 10 10 10 10 10 10 10 9 10 9 9 10 10 10 10 10 10 11 10 10 10 10 10 10 10 10 9 9 9 10 9 8 11 10 11 11 10 10 10 10 9 10
10 10 10 11 10 10 10 10 10 10 10 10 10 10 10 10 10 11 11 11 11 11 11 11 10 10 9 9 9 9 9 9 9 9 11 9 10 9 9 9 9 9 10
10 11 11 11 10 10 10 10 11 10 10 11 10 10 10 10 10 10 10 11 11 10 11 11 11 11 11 10 10 9 9 9 8 9 9 10 9 9 9 11 10 9 11
10 10 11 10 10 10 10 10 10 10 10 10 10 10 11 11 10 10 10 10 10 11 11 11 11 12 11 10 9 9 8 8 9 9 10 11 11 11 12 10 11 10 11
10 11 10 11 11 11 11 11 10 10 10 10 10 10 11 11 11 10 10 11 11 11 11 11 10 10 10 10 10 10 9 9 9 9 10 12 12 12 11 11 12 12 12
10 10 10 10 10 10 10 10 10 10 10 10 10 10 11 11 11 11 11 10 10 11 11 11 11 11 10 9 9 9 10 9 9 9 11 12 12 12 11 11 12 12 12
10 10 10 10 10 10 10 10 10 10 10 10 10 10 11 11 10 10 10 10 11 11 11 11 11 11 10 10 10 10 11 11 11 10 11 12 12 11 11 11 11 11 10
11 11 11 10 10 10 10 10 9 9 10 11 11 10 11 11 10 10 10 10 10 11 11 11 11 11 11 10 10 11 11 12 11 11 11 11 11 11 10 11 12 12 13
13 12 12 11 11 11 10 10 10 10 10 10 11 11 11 11 10 10 10 10 11 11 11 11 11 11 11 10 11 11 11 12 11 12 12 12 12 12 11 12 12 13 12
13 12 12 12 12 11 10 11 10 10 10 11 12 12 11 11 11 10 9 10 11 11 11 11 11 11 11 11 11 11 11 11 12 12 12 12 12 13 12 12 12 12 13
13 13 13 13 12 12 11 11 11 10 11 11 12 12 12 11 11 10 10 10 10 10 11 11 11 11 12 12 12 12 11 11 12 13 14 14 14 14 13 12 12 13 13
14 15 14 13 13 13 12 12 11 11 11 11 11 12 12 12 11 10 10 10 9 10 10 11 12 12 13 13 13 13 14 13 13 14 15 15 14 14 14 14 14 15 16
15 14 13 13 13 13 12 11 12 12 12 11 11 12 12 12 11 11 11 11 10 10 11 12 12 13 14 15 15 15 15 15 14 14 14 14 13 14 16 15 16 16 16
14 14 13 13 13 13 13 12 12 11 11 11 11 12 12 12 11 11 11 11 11 10 11 11 12 13 15 16 16 16 15 14 14 13 14 15 15 16 17 17 18 17 19
14 14 14 14 14 14 13 13 12 12 10 9 9 10 10 10 11 11 11 11 11 11 10 11 13 15 16 16 16 16 15 16 15 15 16 16 17 18 18 18 17 18 20
17 16 15 15 15 15 15 14 14 12 11 10 9 9 9 10 11 11 11 11 12 11 11 12 14 14 16 15 15 14 16 17 18 17 17 18 18 19 18 19 18 19 20
20 21 18 16 16 16 16 15 15 15 15 13 11 11 10 10 11 11 11 11 13 14 13 14 15 14 15 15 15 16 16 17 17 17 19 20 20 19 20 20 21 23 22
18 17 18 17 17 19 17 16 15 15 15 14 13 11 11 11 12 12 12 14 15 15 15 15 15 15 16 16 17 17 18 19 19 19 21 22 22 21 22 22 22 25 25
19 22 22 18 18 17 17 17 16 16 15 14 14 13 13 12 13 15 16 15 15 16 16 16 17 17 17 17 17 18 19 19 20 20 22 22 22 22 23 24 24 24 24
18 18 23 18 18 18 18 18 17 17 17 15 16 16 13 15 15 17 17 17 16 16 17 17 17 18 18 19 18 18 19 20 22 23 22 23 24 24 24 24 24 25 26
18 18 18 18 18 18 18 19 18 18 18 17 16 17 15 16 17 18 18 19 19 20 19 18 18 19 19 19 19 19 20 22 23 24 25 26 24 25 24 25 25 25 25
17 17 17 18 19 21 19 18 18 18 18 18 18 18 18 18 19 19 20 20 20 21 21 20 21 23 23 23 22 21 21 22 24 25 25 25 25 25 25 25 27 27 29
17 17 17 17 18 18 18 18 18 21 20 19 19 19 19 20 19 21 21 20 20 21 22 23 23 24 25 24 23 24 26 26 26 27 27 25 27 26 26 28 28 29 29
17 17 17 17 18 18 18 18 18 19 20 20 20 19 20 20 20 20 20 21 22 21 24 25 25 25 26 27 27 26 26 29 29 28 28 27 28 29 30 30 30 29 30
18 18 18 18 19 18 18 18 18 19 20 20 21 20 20 20 20 20 21 21 22 23 23 24 25 26 26 26 26 27 24 25 30 28 27 27 28 29 29 30 30 30 30

GFSGL_con_lsi_240.txt.gz
Lid_Strength_Index
10 10 10 10 10 9 9 9 9 9 9 9 9 9 10 10 9 10 10 10 10 11 11 11 11 11 11 10 10 10 10 9 10 11 10 11 12 12 12 12 12 13 12
10 10 10 10 10 11 10 10 10 10 10 10 10 10 10 10 11 11 11 11 12 12 12 12 11 10 11 11 10 11 11 10 9 11 11 12 12 12 12 12 10 11 12
11 11 11 11 11 11 11 11 10 11 11 10 10 11 11 11 11 11 12 12 12 12 13 13 13 12 11 11 10 10 10 9 9 10 11 11 12 11 12 11 11 12 12
11 11 11 11 11 11 11 11 11 11 11 11 11 12 12 11 11 11 11 12 12 13 13 13 12 12 12 11 11 11 10 10 10 11 12 12 12 12 12 13 12 12 14
11 11 11 11 11 11 11 11 11 11 11 11 11 12 12 12 11 12 12 12 12 12 12 12 12 13 12 12 12 12 11 11 11 12 13 14 13 13 13 12 13 12 14
11 11 10 10 10 10 10 10 10 10 11 10 11 11 12 12 10 10 11 11 12 12 13 13 12 12 11 11 11 10 11 11 11 12 13 14 14 13 12 13 13 14 14
11 11 11 11 11 11 10 10 10 11 10 11 11 11 12 11 10 10 11 12 13 13 14 13 13 12 11 11 11 11 11 10 10 12 13 14 14 13 13 14 14 14 14
12 12 11 11 11 11 11 11 11 11 11 12 12 12 12 12 11 10 11 13 14 14 13 13 13 13 11 11 11 12 13 12 12 12 13 13 13 13 13 12 13 13 13
13 13 13 12 11 11 12 12 11 12 12 12 12 12 12 12 10 10 11 12 13 13 13 13 13 12 11 10 10 11 12 13 11 11 11 11 11 11 12 13 15 17 18
13 13 13 12 13 12 12 12 12 11 12 12 12 12 12 12 10 10 11 12 12 12 12 11 11 12 11 10 11 11 12 12 13 14 14 13 13 13 13 14 14 16 17
13 12 13 13 13 13 12 12 12 12 12 13 12 12 12 12 11 10 10 11 11 11 11 12 12 11 11 11 11 11 11 11 12 13 14 14 14 15 15 14 14 14 17
14 14 14 14 13 12 13 12 12 12 13 12 12 12 12 11 11 10 10 10 10 11 12 12 12 11 11 11 12 11 10 12 14 16 17 17 17 17 16 14 13 14 14
17 18 17 15 14 13 14 13 13 13 14 12 12 12 12 11 11 10 10 9 9 11 11 11 12 12 13 13 12 12 15 15 17 19 20 19 17 17 16 18 18 18 19
20 18 16 17 16 15 13 13 12 12 12 12 12 12 12 11 11 11 11 11 10 11 12 13 12 13 13 15 16 16 16 16 17 18 19 19 19 20 21 19 21 22 24
19 18 18 17 19 17 15 15 13 11 11 11 11 12 12 12 11 11 11 11 11 11 12 13 13 16 20 20 20 20 20 19 19 20 21 22 22 22 22 23 24 25 25
19 18 19 18 18 17 17 16 11 11 10 8 9 10 10 9 10 10 10 11 11 11 11 13 15 21 22 22 23 22 21 21 21 21 23 24 24 24 24 24 25 26 27
24 21 20 19 19 19 19 19 19 16 10 9 9 8 9 10 10 10 10 10 10 10 12 13 14 18 23 23 22 22 23 23 24 23 25 25 26 27 26 26 26 27 27
26 23 23 22 22 22 21 21 22 16 17 14 12 10 9 10 11 11 10 11 18 14 14 15 15 19 23 22 22 23 23 24 24 25 26 28 28 27 28 28 29 29 29
24 24 24 23 23 23 24 23 23 20 16 15 14 12 13 11 11 12 12 17 15 16 16 16 23 24 24 24 25 25 26 27 27 27 29 30 30 30 30 30 30 28 29
27 23 23 24 23 23 23 24 23 23 16 15 16 18 19 17 16 21 23 16 17 17 20 24 25 25 25 25 26 27 27 27 27 29 30 31 31 30 30 31 32 30 31
24 24 23 24 24 24 25 25 25 25 22 19 21 20 13 19 21 24 25 26 22 23 24 26 26 26 26 26 26 26 27 28 29 30 31 32 32 30 32 30 31 33 33
24 24 24 25 24 24 26 26 25 24 23 22 23 22 15 22 24 25 26 27 27 27 26 26 26 28 28 27 27 27 28 29 31 31 32 32 32 32 31 31 32 32 33
24 24 24 25 25 24 25 25 24 24 23 24 24 25 26 26 25 25 26 26 26 27 28 28 29 29 30 30 30 30 28 29 30 32 32 32 32 32 32 33 34 33 35
24 24 24 25 25 26 25 25 25 24 25 24 25 26 26 26 24 24 24 24 24 26 28 29 30 30 31 30 31 32 33 33 34 33 32 32 33 33 34 34 34 34 33
26 25 24 25 25 25 25 25 25 26 25 25 25 25 26 25 25 24 24 24 24 25 27 29 30 31 31 31 32 33 29 31 33 31 34 33 33 35 36 36 35 34 34
26 25 26 26 25 26 25 24 24 25 25 24 25 25 25 25 24 23 22 23 24 24 25 27 28 29 30 31 32 28 24 25 31 29 33 32 33 35 36 36 35 35 34

GFSGL_con_lsi_246.txt.gz
Lid_Strength_Index
10 10 10 10 10 11 11 12 12 12 11 11 11 11 11 11 11 12 12 12 12 12 12 12 11 11 12 11 11 11 10 11 13 13 13 13 13 13 13 14 14 14 13
10 10 10 10 10 11 11 11 11 11 11 12 12 11 11 12 12 13 13 13 13 14 13 13 13 11 12 12 12 12 11 11 12 14 13 13 13 13 14 15 15 14 13
10 11 11 11 11 11 11 11 11 12 12 12 12 12 12 12 12 12 13 13 13 14 14 14 14 13 14 13 13 12 12 11 12 13 14 13 13 13 14 14 16 16 14
10 10 11 11 11 11 10 11 11 11 12 12 12 12 12 12 12 12 12 13 13 13 14 14 14 14 14 14 13 13 13 13 13 13 14 15 14 14 14 15 16 17 17
11 11 11 10 11 11 10 11 11 11 12 12 12 12 12 11 12 12 12 13 14 14 14 14 14 15 14 13 14 13 13 13 14 14 15 15 16 15 15 15 15 16 17
12 12 11 11 10 10 11 11 11 11 12 12 12 12 12 12 11 11 12 13 13 14 14 14 13 13 13 12 12 11 12 13 14 14 15 15 15 15 15 15 14 15 17
14 14 13 12 11 11 11 10 11 11 11 12 12 12 11 11 11 12 12 14 14 14 14 14 13 12 13 14 13 13 13 12 12 13 14 15 15 15 14 14 15 15 17
14 14 14 13 13 12 12 11 11 11 12 12 12 12 11 10 10 11 12 14 14 14 14 14 14 13 12 13 14 14 14 14 14 13 14 14 14 14 13 13 14 16 16
15 15 15 14 14 13 13 13 12 12 12 12 12 12 11 11 10 10 12 13 13 13 13 13 13 12 10 10 12 14 14 13 11 11 12 12 12 11 12 13 17 20 21
15 15 15 14 14 14 14 13 13 12 12 11 11 11 11 11 9 9 10 11 12 12 13 13 12 12 11 10 11 12 14 15 15 15 15 15 16 15 14 15 14 19 21
15 14 14 14 14 14 13 13 12 11 11 11 12 12 11 11 10 9 8 10 11 11 12 12 12 11 11 10 10 11 12 13 13 15 16 16 17 17 17 17 17 18 21
16 16 16 16 14 14 15 13 13 11 12 12 11 12 11 10 9 9 8 8 8 10 12 12 12 11 11 10 10 10 10 13 16 18 19 19 19 19 18 18 17 17 16
19 19 19 17 16 15 15 14 13 13 12 12 11 11 11 10 10 9 9 8 9 10 10 11 11 12 12 13 11 12 15 17 19 22 22 21 20 21 21 21 21 21 22
21 20 19 19 18 18 16 16 14 13 13 10 10 11 11 10 10 10 10 10 9 10 10 11 12 13 13 15 17 16 17 17 18 21 23 24 24 23 24 21 24 26 27
22 21 20 19 21 20 18 19 15 11 9 9 9 9 11 11 10 9 10 10 10 10 11 12 14 20 21 21 22 22 22 22 23 25 26 26 26 25 25 28 29 30 27
22 21 21 21 22 21 21 19 13 9 7 7 6 8 8 8 9 9 9 10 10 10 11 14 16 23 24 25 26 26 26 26 26 26 28 28 28 27 27 29 30 31 29
24 23 23 22 22 24 22 21 19 14 9 8 7 6 7 8 9 9 9 10 10 10 13 13 16 20 25 26 26 26 25 26 29 28 28 29 30 32 30 31 31 32 30
29 25 26 25 26 26 24 23 22 15 15 16 12 10 9 9 9 10 10 13 18 13 13 14 16 20 25 26 26 26 27 27 29 29 30 33 33 31 31 31 32 32 33
27 28 28 28 28 27 26 25 24 21 14 15 20 14 15 11 11 12 12 17 16 16 16 18 22 22 25 28 29 30 30 30 31 32 33 34 35 33 35 35 33 32 33
29 27 29 30 29 28 29 27 25 26 21 22 23 22 20 18 19 20 21 21 20 22 24 24 24 25 28 29 30 31 31 31 32 33 34 35 37 35 34 35 35 32 34
29 31 29 31 31 31 30 29 28 27 26 26 26 24 12 23 23 23 26 24 27 27 26 25 24 27 28 29 30 31 31 32 34 34 35 36 37 33 37 35 37 38 38
29 32 32 31 32 29 30 30 28 27 28 27 27 26 15 25 25 25 25 24 26 27 27 26 26 27 28 28 29 30 31 32 35 36 35 37 37 37 37 37 37 37 38
28 30 32 33 32 30 30 31 30 28 28 28 28 26 27 27 27 25 25 24 23 25 26 26 26 27 29 30 32 30 29 30 31 33 35 36 36 36 38 37 37 37 37
28 28 29 32 31 31 31 30 30 28 28 28 29 28 28 27 27 26 26 25 24 23 23 24 25 26 28 30 32 33 34 35 37 34 34 35 36 37 38 39 38 37 37
28 30 30 29 31 31 31 31 30 31 30 29 28 29 29 28 26 26 26 26 25 25 25 25 24 24 26 26 30 31 28 29 34 34 37 35 35 38 40 40 39 38 38
29 29 31 32 33 33 32 30 30 30 29 29 29 29 29 28 28 27 26 25 25 26 27 26 27 27 28 28 29 27 23 23 30 31 35 33 35 39 39 39 39 39 38